Regional Weather Roundup
Issued by NWS

Home | Current Version | Previous Version | Text Only | Print | Product List | Glossary Off
Versions: 1 2 3 4 5 6 7 8 9 10 11 12 13 14 15 16 17 18 19 20 21 22 23 24 25 26 27 28 29 30 31 32 33 34 35 36 37 38 39 40 41 42 43 44 45 46 47 48 49 50

000
ASUS43 KLOT 312000
RWRIL

ILLINOIS REGIONAL WEATHER ROUNDUP
NATIONAL WEATHER SERVICE CHICAGO/ROMEOVILLE IL
200 PM CST SAT JAN 31 2015

NOTE: "FAIR" INDICATES FEW OR NO CLOUDS BELOW 12,000 FEET WITH NO
SIGNIFICANT WEATHER AND/OR OBSTRUCTIONS TO VISIBILITY.

* THESE STATIONS ARE NOT UNDER NWS QUALITY CONTROL. THEY ALSO MAY NOT
  REPORT WEATHER SUCH AS PRECIPITATION OR FOG.

ILZ001-002-007-009-015-016-024-312100-
NORTHWEST ILLINOIS

CITY           SKY/WX    TMP DP  RH WIND       PRES   REMARKS
MOLINE         CLOUDY    36  33  89 W7        30.17F FOG     WCI  30
STERLING*        N/A    N/A N/A N/A MISG        N/A
$$

ILZ003-004-008-010-011-017-018-312100-
NORTH CENTRAL ILLINOIS

CITY           SKY/WX    TMP DP  RH WIND       PRES   REMARKS
ROCKFORD       CLOUDY    36  25  64 W5        30.17S WCI  32
$$

ILZ005-006-012>014-019>023-312100-
NORTHEAST ILLINOIS

CITY           SKY/WX    TMP DP  RH WIND       PRES   REMARKS
CHICAGO-OHARE  CLOUDY    34  24  67 W9        30.16S WCI  27
CHICAGO-MIDWAY CLOUDY    39  26  59 W9        30.16F WCI  33
AURORA         CLOUDY    37  27  67 SW8       30.17S WCI  31
WAUKEGAN       PTSUNNY   36  22  56 VRB5      30.15S WCI  32
DUPAGE AIRPORT CLOUDY    36  27  69 W9        30.16S WCI  29
WHEELING       CLOUDY    36  24  62 SW6       30.17F WCI  31
NORTHERLY ISL    N/A     36  24  62 W9          N/A  WCI  29
$$

LMZ740>746-312100-
SOUTHERN LAKE MICHIGAN

STATION/POSITION SKY/WX   TEMP    WIND        PRES    VSBY  WAVE
                          AIR SEA DIR/SP/G                  HT/PER
                          (F)     (DEG/KT/KT) (MB)    (MI)  (FT/S)
WAUKEGAN HARBOR            36     290/  2/  8   N/A
HARRISON CRIB              35     230/  9/ 12   N/A
BURNHAM HARBOR             36     280/  7/ 13   N/A
CALUMET HARBOR             38     250/  6/  9   N/A
MICHIGAN CITY              36     180/ 14/ 15   N/A
$$

ILZ025>027-034>036-040-047-049-050-058-095>099-312100-
WEST-CENTRAL ILLINOIS

CITY           SKY/WX    TMP DP  RH WIND       PRES   REMARKS
QUINCY         LGT RAIN  34  31  88 S8        30.21F FOG     WCI  27
$$

ILZ028>032-037-038-041>044-048-051>054-059>061-312100-
CENTRAL ILLINOIS

CITY           SKY/WX    TMP DP  RH WIND       PRES   REMARKS
DECATUR        CLOUDY    37  27  67 SW12      30.25F WCI  29
PEORIA         LGT RAIN  38  29  70 S8        30.21F WCI  32
SPRINGFIELD    CLOUDY    39  28  64 SW7       30.24F WCI  34
TAYLORVILLE    NOT AVBL
$$

ILZ033-039-045-046-055>057-062-063-312100-
EAST-CENTRAL ILLINOIS

CITY           SKY/WX    TMP DP  RH WIND       PRES   REMARKS
CHAMPAIGN      CLOUDY    38  29  70 SW14      30.23F WCI  30
MATTOON        CLOUDY    36  25  64 S10       30.25F WCI  28
$$

ILZ079-100>102-312100-
SOUTHWEST ILLINOIS

CITY           SKY/WX    TMP DP  RH WIND       PRES   REMARKS
BELLEVILLE     CLOUDY    42  28  57 SE7       30.24F
CAHOKIA*       CLOUDY    45  27  49 S3        30.23F
SPARTA*        CLOUDY    40  25  56 SE7       30.27F
$$

ILZ064>066-069>071-074>076-080>082-084>086-088>090-092>094-312100-
SOUTH-CENTRAL ILLINOIS

CITY           SKY/WX    TMP DP  RH WIND       PRES   REMARKS
CARBONDALE     CLOUDY    42  23  46 S5        30.27F
MT. VERNON     CLOUDY    43  27  52 SE5       30.28F
SALEM*         CLOUDY    43  26  50 S3        30.27F
$$

ILZ067-068-072-073-078-083-087-091-312100-
SOUTHEAST ILLINOIS

CITY           SKY/WX    TMP DP  RH WIND       PRES   REMARKS
LAWRENCEVILLE  CLOUDY    41  26  55 SW8       30.31F
ROBINSON*      CLOUDY    39  27  60 SW6       30.30F WCI  35
$$

ABBREVIATIONS USED IN REMARKS
   TC - TEMPERATURE IN CELSIUS
  WCI - WIND CHILL INDEX
   HX - HEAT INDEX
  VSB - VISIBILITY
$$



USA.gov is the U.S. government's official web portal to all federal, state and local government web resources and services.